• In United Kingdom
  • List of Countries
  • For 7 days
  • Water Temperature
  • Satellite Maps
  • Weather Map
  • Weather Widgets
  • user-avatar
    Login

    Hourly Weather Salawaj

    Today, 18 September, Tuesday

    Time Temperature Precipitation Wind Pressure Humidity
    00:00 +24°C° 0.9 mm 0 mps 739 mmHg 95%
    01:00 +24°C° 0 mm 0 mps 739 mmHg 96%
    02:00 +24°C° 0.8 mm 0 mps 739 mmHg 96%
    03:00 +24°C° 0.8 mm 0 mps 739 mmHg 96%
    04:00 +24°C° 0.8 mm 0 mps 739 mmHg 96%
    05:00 +24°C° 0.4 mm 0 mps 740 mmHg 96%
    06:00 +24°C° 0.4 mm 0 mps 740 mmHg 96%
    07:00 +25°C° 0 mm 0 mps 740 mmHg 95%
    08:00 +26°C° 0.4 mm 0 mps 741 mmHg 89%
    09:00 +27°C° 0.4 mm 0 mps 741 mmHg 83%
    10:00 +31°C° 0.4 mm 1 mps 741 mmHg 78%
    11:00 +29°C° 1.5 mm 0 mps 740 mmHg 79%
    12:00 +30°C° 1.5 mm 0 mps 740 mmHg 80%
    13:00 +30°C° 0 mm 0 mps 740 mmHg 81%
    14:00 +29°C° 2.6 mm 0 mps 740 mmHg 85%
    15:00 +28°C° 2.6 mm 0 mps 739 mmHg 88%
    16:00 +27°C° 2.6 mm 0 mps 739 mmHg 92%
    17:00 +26°C° 1 mm 0 mps 739 mmHg 94%
    18:00 +26°C° 1 mm 0 mps 740 mmHg 95%
    19:00 +24°C° 0 mm 0 mps 740 mmHg 96%
    20:00 +24°C° 0.3 mm 0 mps 741 mmHg 97%
    21:00 +24°C° 0.3 mm 0 mps 741 mmHg 97%
    22:00 +24°C° 0.3 mm 0 mps 742 mmHg 97%
    23:00 +24°C° 0.1 mm 0 mps 742 mmHg 97%

    Tomorrow, 19 September, Wednesday

    Time Temperature Precipitation Wind Pressure Humidity
    00:00 +24°C° 0.1 mm 0 mps 742 mmHg 98%
    01:00 +23°C° 0.1 mm 0 mps 742 mmHg 98%
    02:00 +23°C° 0 mm 0 mps 741 mmHg 98%
    03:00 +23°C° 0 mm 0 mps 741 mmHg 98%
    04:00 +23°C° 0 mm 0 mps 741 mmHg 98%
    05:00 +23°C° 0 mm 0 mps 741 mmHg 97%
    06:00 +24°C° 0 mm 0 mps 742 mmHg 97%
    07:00 +24°C° 0 mm 0 mps 742 mmHg 96%
    08:00 +27°C° 0 mm 0 mps 742 mmHg 84%
    09:00 +29°C° 0 mm 0 mps 742 mmHg 73%
    10:00 +34°C° 0 mm 1 mps 742 mmHg 61%
    11:00 +34°C° 0.7 mm 1 mps 742 mmHg 62%
    12:00 +34°C° 0.7 mm 1 mps 741 mmHg 64%
    13:00 +34°C° 0.7 mm 1 mps 741 mmHg 65%
    14:00 +34°C° 1.8 mm 1 mps 740 mmHg 69%
    15:00 +33°C° 1.8 mm 1 mps 740 mmHg 73%
    16:00 +33°C° 1.8 mm 1 mps 739 mmHg 76%
    17:00 +31°C° 0.8 mm 1 mps 739 mmHg 81%
    18:00 +29°C° 0.8 mm 1 mps 739 mmHg 86%
    19:00 +28°C° 0.8 mm 1 mps 740 mmHg 91%
    20:00 +27°C° 0 mm 1 mps 740 mmHg 92%
    21:00 +27°C° 0 mm 1 mps 741 mmHg 93%
    22:00 +26°C° 0 mm 1 mps 741 mmHg 94%
    23:00 +26°C° 0.1 mm 1 mps 741 mmHg 94%

    Day after tomorrow, 20 September, Thursday

    Time Temperature Precipitation Wind Pressure Humidity
    00:00 +26°C° 0.1 mm 1 mps 741 mmHg 95%
    01:00 +26°C° 0.1 mm 1 mps 741 mmHg 95%
    02:00 +25°C° 0.2 mm 1 mps 741 mmHg 95%
    03:00 +25°C° 0.2 mm 1 mps 741 mmHg 95%
    04:00 +25°C° 0.2 mm 1 mps 741 mmHg 95%
    05:00 +23°C° 0 mm 0 mps 741 mmHg 93%
    06:00 +24°C° 0 mm 0 mps 741 mmHg 91%
    07:00 +25°C° 0 mm 0 mps 742 mmHg 89%
    08:00 +27°C° 0 mm 0 mps 742 mmHg 77%
    09:00 +30°C° 0 mm 0 mps 742 mmHg 65%
    10:00 +33°C° 0 mm 0 mps 742 mmHg 53%
    11:00 +36°C° 0 mm 1 mps 741 mmHg 50%
    12:00 +36°C° 0 mm 1 mps 741 mmHg 48%
    13:00 +37°C° 0 mm 1 mps 740 mmHg 46%
    14:00 +36°C° 0 mm 1 mps 740 mmHg 49%
    15:00 +35°C° 0 mm 1 mps 739 mmHg 52%
    16:00 +34°C° 0 mm 1 mps 739 mmHg 55%
    17:00 +32°C° 0 mm 1 mps 739 mmHg 63%
    18:00 +30°C° 0 mm 1 mps 739 mmHg 71%
    19:00 +28°C° 0 mm 1 mps 740 mmHg 79%
    20:00 +28°C° 0 mm 1 mps 740 mmHg 82%
    21:00 +27°C° 0 mm 1 mps 741 mmHg 85%
    22:00 +26°C° 0 mm 1 mps 741 mmHg 88%
    23:00 +26°C° 0 mm 1 mps 741 mmHg 89%

    21 September, Friday

    Time Temperature Precipitation Wind Pressure Humidity
    00:00 +26°C° 0 mm 1 mps 741 mmHg 91%
    01:00 +25°C° 0 mm 1 mps 741 mmHg 92%
    02:00 +25°C° 0 mm 1 mps 741 mmHg 92%
    03:00 +25°C° 0 mm 1 mps 740 mmHg 91%
    04:00 +25°C° 0 mm 1 mps 740 mmHg 91%
    05:00 +25°C° 0 mm 1 mps 741 mmHg 88%
    06:00 +24°C° 0 mm 0 mps 741 mmHg 85%
    07:00 +25°C° 0 mm 0 mps 742 mmHg 82%
    08:00 +28°C° 0 mm 0 mps 742 mmHg 71%
    09:00 +31°C° 0 mm 0 mps 742 mmHg 60%
    10:00 +33°C° 0 mm 0 mps 742 mmHg 50%
    11:00 +36°C° 0.1 mm 1 mps 742 mmHg 48%
    12:00 +36°C° 0.1 mm 1 mps 741 mmHg 47%
    13:00 +37°C° 0.1 mm 1 mps 740 mmHg 46%
    14:00 +36°C° 0.8 mm 1 mps 740 mmHg 54%
    15:00 +34°C° 0.8 mm 1 mps 740 mmHg 62%
    16:00 +33°C° 0.8 mm 1 mps 739 mmHg 70%
    17:00 +31°C° 0.2 mm 1 mps 740 mmHg 75%
    18:00 +29°C° 0.2 mm 1 mps 740 mmHg 81%
    19:00 +28°C° 0.2 mm 1 mps 741 mmHg 87%
    20:00 +27°C° 0 mm 1 mps 741 mmHg 88%
    21:00 +27°C° 0 mm 1 mps 742 mmHg 89%
    22:00 +26°C° 0 mm 1 mps 743 mmHg 91%
    23:00 +26°C° 0 mm 1 mps 742 mmHg 91%

    22 September, Saturday

    Time Temperature Precipitation Wind Pressure Humidity
    00:00 +26°C° 0 mm 1 mps 742 mmHg 92%
    01:00 +26°C° 0 mm 1 mps 742 mmHg 92%
    02:00 +25°C° 0.7 mm 1 mps 742 mmHg 92%
    03:00 +23°C° 0.7 mm 0 mps 742 mmHg 92%
    04:00 +23°C° 0.7 mm 0 mps 741 mmHg 92%
    05:00 +24°C° 0.2 mm 0 mps 742 mmHg 90%
    06:00 +24°C° 0.2 mm 0 mps 742 mmHg 88%
    07:00 +25°C° 0.2 mm 0 mps 743 mmHg 85%
    08:00 +28°C° 0 mm 0 mps 743 mmHg 75%
    09:00 +30°C° 0 mm 0 mps 743 mmHg 64%
    10:00 +33°C° 0 mm 0 mps 743 mmHg 53%
    11:00 +33°C° 0.2 mm 0 mps 743 mmHg 52%
    12:00 +36°C° 0.2 mm 1 mps 742 mmHg 50%
    13:00 +36°C° 0.2 mm 1 mps 741 mmHg 49%
    14:00 +35°C° 1 mm 1 mps 741 mmHg 59%
    15:00 +33°C° 1 mm 1 mps 740 mmHg 69%
    16:00 +32°C° 1 mm 1 mps 740 mmHg 79%
    17:00 +30°C° 0.6 mm 1 mps 740 mmHg 83%
    18:00 +29°C° 0.6 mm 1 mps 741 mmHg 87%
    19:00 +27°C° 0.6 mm 1 mps 741 mmHg 92%
    20:00 +27°C° 0 mm 1 mps 742 mmHg 92%
    21:00 +27°C° 0 mm 1 mps 742 mmHg 93%
    22:00 +26°C° 0 mm 1 mps 743 mmHg 94%
    23:00 +26°C° 0.1 mm 1 mps 743 mmHg 94%

    23 September, Sunday

    Time Temperature Precipitation Wind Pressure Humidity
    00:00 +26°C° 0.1 mm 1 mps 742 mmHg 94%
    01:00 +26°C° 0.1 mm 1 mps 742 mmHg 95%
    02:00 +25°C° 0.6 mm 1 mps 742 mmHg 95%
    03:00 +25°C° 0.6 mm 1 mps 742 mmHg 95%
    04:00 +25°C° 0.6 mm 1 mps 742 mmHg 95%
    05:00 +24°C° 0.2 mm 0 mps 742 mmHg 93%
    06:00 +24°C° 0.2 mm 0 mps 743 mmHg 91%
    07:00 +25°C° 0.2 mm 0 mps 743 mmHg 89%
    08:00 +27°C° 0.1 mm 0 mps 743 mmHg 78%
    09:00 +30°C° 0.1 mm 0 mps 743 mmHg 67%
    10:00 +33°C° 0.1 mm 0 mps 744 mmHg 56%
    11:00 +33°C° 0.8 mm 0 mps 743 mmHg 59%
    12:00 +35°C° 0.8 mm 1 mps 742 mmHg 61%
    13:00 +35°C° 0.8 mm 1 mps 741 mmHg 64%
    14:00 +33°C° 1.8 mm 1 mps 741 mmHg 72%
    15:00 +32°C° 1.8 mm 1 mps 740 mmHg 79%
    16:00 +30°C° 1.8 mm 1 mps 740 mmHg 87%
    17:00 +29°C° 0.5 mm 1 mps 741 mmHg 89%
    18:00 +28°C° 0.5 mm 1 mps 741 mmHg 92%
    19:00 +25°C° 0.5 mm 0 mps 742 mmHg 94%
    20:00 +25°C° 0.1 mm 0 mps 742 mmHg 95%
    21:00 +24°C° 0.1 mm 0 mps 742 mmHg 95%
    22:00 +24°C° 0.1 mm 0 mps 743 mmHg 96%
    23:00 +24°C° 0.2 mm 0 mps 742 mmHg 96%
    Show more